Powrót do katalogu

ATLAS CENTAUR 2 DEB

AktywnyLEO
NORAD 739·DEBRIS·🇺🇸 United States

Wystrzelony Nov 27, 1963 z Cape Canaveral Space Force Station

Loading…

Następne Przeloty (najbliższe 24 godziny)

TLE

ŚwieżeSource: Space-Track

Epoka: Sep 14, 2026, 13:06 UTC

1 00739U 63047H   26257.54589874  .00000260  00000-0  31442-4 0  9997
2 00739  30.4232 336.4837 0635129  72.1591 294.7224 13.85342187153786

Śledź ATLAS CENTAUR 2 DEB w czasie rzeczywistym z AllMySat

Download on the App Store